Regional Weather Roundup
Issued by NWS Charleston, SC

Current Version | Previous Version | Text Only | Print | Product List | Glossary Off
Versions: 1 2 3 4 5 6 7 8 9 10 11 12 13 14 15 16 17 18 19 20 21 22 23 24 25 26 27 28 29 30 31 32 33 34 35 36 37 38 39 40 41 42 43 44 45 46 47 48 49 50
000 ASUS42 KCHS 220312 RWRCHS REGIONAL WEATHER ROUNDUP NATIONAL WEATHER SERVICE CHARLESTON SC 1100 PM EDT THU MAY 21 2015 NOTE: "FAIR" INDICATES FEW OR NO CLOUDS BELOW 12,000 FEET WITH NO SIGNIFICANT WEATHER AND/OR OBSTRUCTIONS TO VISIBILITY. NOT ALL STATIONS ARE QUALITY CONTROLLED BY THE NATIONAL WEATHER SERVICE. USE DATA WITH CAUTION...ESPECIALLY DEWPOINT OBSERVATIONS. SCZ027-030-031-034>040-042>050-220400- ...SOUTHEAST SOUTH CAROLINA... CITY SKY/WX TMP DP RH WIND PRES REMARKS N CHARLESTON CLEAR 79 60 52 W6 29.90R WATERFRONT PAR N/A 82 63 52 VRB2 29.86R MOUNT PLEASANT FAIR 79 63 57 W3 29.90R JOHNS ISLAND CLEAR 75 64 69 W5 29.91R PINOPOLIS N/A 82 64 54 W8 29.80R MONCKS CORNER FAIR 75 61 60 CALM 29.90R SUMMERVILLE FAIR 72 64 78 W3 29.92R BEAUFORT MCAS CLEAR 79 62 56 W7 29.92R BEAUFORT ARPT FAIR 81 63 54 W9 29.91R HILTON HEAD IS CLEAR 79 64 61 SW5 29.93R WALTERBORO CLEAR 75 61 60 W6 29.92R ALLENDALE FAIR 79 61 53 VRB3 29.92S ...SOUTHERN MIDLANDS AND PEE DEE... CITY SKY/WX TMP DP RH WIND PRES REMARKS GEORGETOWN NOT AVBL KINGSTREE NOT AVBL ORANGEBURG CLEAR 76 58 53 W6 29.92R BARNWELL FAIR 77 61 57 W6 29.94R AIKEN FAIR 72 54 53 W10 29.99R MANNING FAIR 77 -27 1 NW3 29.91R COLUMBIA CLEAR 77 56 48 W14 29.92R SUMTER CLEAR 77 58 52 W9 29.89R FLORENCE PTCLDY 71 64 78 E9 29.91R MYRTLE BEACH CLEAR 75 63 64 NE8 29.92R N MYRTLE BEACH PTCLDY 71 63 75 NE8 29.90R $$ GAZ063-065-086>088-099>101-113>116-118-119-134>141-150-220400- ...SOUTHEAST GEORGIA... CITY SKY/WX TMP DP RH WIND PRES REMARKS SAVANNAH ARPT CLEAR 78 60 53 W6 29.94R HUNTER AAF CLEAR 75 64 68 W8 29.91R FORT STEWART CLEAR 79 62 55 W7 29.93R STATESBORO CLEAR 77 67 69 NW9 29.95R SYLVANIA CLEAR 78 65 64 NW9 29.95R CLAXTON FAIR 79 64 61 NW7 29.96R ...CSRA...CENTRAL AND FAR SOUTHEAST GEORGIA... CITY SKY/WX TMP DP RH WIND PRES REMARKS THOMSON CLEAR 72 59 64 W12G22 30.04R AUGUSTA-BUSH CLEAR 77 58 51 NW13 29.95R AUGUSTA-DANIEL CLEAR 75 57 53 W9 29.97R SWAINSBORO FAIR 77 64 65 NW9 29.99R VIDALIA CLEAR 79 63 57 W7 29.99R EASTMAN FAIR 75 64 68 NW7 30.04R HAZLEHURST FAIR 78 63 59 W7 29.99R ALMA CLEAR 78 62 57 NW12 29.99R WAYCROSS CLEAR 80 66 64 NW10G23 29.98R JESUP FAIR 82 66 57 NW7 29.96R BAXLEY FAIR 81 63 54 NW12G18 29.98R BRUNSWICK CLEAR 77 61 57 W5 29.95R SAINT SIMONS NOT AVBL $$ SCZ027-028-034-036>038-045-046-048>050-GAZ119-141-220400- ...LAKE AND SUPPLEMENTAL COASTAL OBSERVATIONS... STATION/POSITION TIME TEMP WIND PRES WAVE SWELL AIR SEA DIR/SP/G HT/PER HT/PER/DIR (UTC) (F) (DEG/KT/KT) (MB) (FT/S) (FT/S/D) UPR LAKE MARION NOT AVBL WINYAH BAY NOT AVBL LAKE MURRAY 0200 78 260/ 10/ 13 1011.9R ACE BASIN NERRS NOT AVBL FORT PULASKI 0200 82 79 240/ 5/ 7 1013.2R SAPELO ISLAND 0200 82 250/ 6 1013.0R $$ ANZ835-935-AMZ111-154-330-350-352-354-370-450-454-472-220400- ...C-MAN AND BUOY OBSERVATIONS... STATION/POSITION TIME TEMP WIND PRES WAVE SWELL AIR SEA DIR/SP/G HT/PER HT/PER/DIR (UTC) (F) (DEG/KT/KT) (MB) (FT/S) (FT/S/D) BUOY 41004 0250 78 76 220/ 14/ 17 1011.4R 3/ 5 2/ 9 BUOY 41008 0250 81 78 250/ 8/ 10 1013.4R 2/ 4 2/110/ 9 FOLLY BEACH CMAN 0200 79 220/ 6/ 7 1011.9R CAPERS NEARSHORE 0208 78 220/ 10/ 14 1011.7R FRIPP NEARSHORE NOT AVBL STATION/POSITION TIME TEMP WIND PRES WAVE SWELL AIR SEA DIR/SP/G HT/PER HT/PER/DIR (UTC) (F) (DEG/KT/KT) (MB) (FT/S) (FT/S/D) 5E ST. MARYS GA 0221 80 N/A 1/ 4 FRYING PAN BUOY 0250 75 75 20/ 14/ 16 1012.3R 4/ 6 2/160/ 8 BUOY 41025 0250 69 76 320/ 25/ 29 1009.7R 4/ 4 2/ 90/ 9 CAPE LOOKOUT NC 0200 66 330/ 19/ 21 1011.0R BUOY 41002 0250 76 75 230/ 16/ 19 1013.8R 4/ 6 2/130/ 8 BUOY 41010 0220 80 79 200/ 10/ 12 1015.6R ST AUGUSTINE FL 0300 80 74 250/ 6/ 9 1015.7R $$

USA.gov is the U.S. government's official web portal to all federal, state and local government web resources and services.